BREEZE-M R/B, 39128

Orbit data source: Space-Track

BREEZE-M R/B, 39128 is space debris in HEO originally from a launch on Mon, 15 Apr 2013 UTC launched from the Tyuratam Missile And Space Complex (TTMTR). Debris objects in space refer to the collection of defunct objects orbiting the Earth. Examples of debris include non-operational satellites, rocket bodies, and fragments generated from explosions, collisions, or faulty payload assembly.

Loading next visibility...
BREEZE-M R/B details
Identifier
39128, 2013-014B
Orbit
HEO
Last TLE update2 days ago
Origin
Flag of CISKhrunichev (CIS)
ManufacturerKhrunichev
MissionSpacecraft
Bus & MotorBRIZ, Unknown motor
Mass~1,600 kg wet, 1,600 kg dry
Launch date (UTC)
2013-04-15 (12 years ago)
Launch vehicleUnknown
Launch site
Tyuratam Missile And Space Complex (TTMTR)
Object type
Payload
Rocket body
Debris
Shape & HBRCyl, 4 m
Radar Cross Section14.451 m², Large (>1 m²)

Expand to show TLE details & history

TLE from 2 days ago
0 BREEZE-M R/B
1 39128U 13014B   24359.77257259 -.00000068  00000-0  00000-0 0  9994
2 39128  15.0472  55.9887 4776101 109.8045 306.3683  1.90428562 81341
Epoch: 2024-12-24T18:32Z
Definitive object data (Epoch: 2024-12-24T18:32:30.271Z)
Latitude-0.00001°
Longitude44.05388°
Altitude18,949.574 km
Speed4.12 km/s
True Right ascension03h 43m 49s
True Declination0° 00' 00"
Sunlit
Object was in daylight at TLE epoch
Visualization TLE readout
Latitude15.02989°
Longitude139.56669°
Altitude8,159.374 km
Speed6.352 km/s
Apparent Right ascension10h 27m 22s
Apparent Declination-1° 55' 38"
Sunlit
Object is in daylight
Visualization observer readout
Local Sidereal Time09:25:03
Azimuth157.356° SSE
Elevation45.791°
Doppler factor1
Orbital elements
Apogee altitude34,251.297 km
Perigee altitude7,985.873 km
Semi-major axis27,496.722 km
Eccentricity0.4776101
Inclination15.0472°
RAAN55.9887°
Arg. of periapsis109.8045°
True anomaly250.03958°
Mean anomaly306.3683°
Eccentric anomaly279.36824°
Mean motion0.47602 °/min
BSTARUnknown
Orbital period756.28 mins
Loading maneuver chart data...
Loading historical data...
Loading historical data...
Loading historical data...
Loading historical data...
Loading historical data...
Loading historical data...
Loading historical data...
Other satellites on launch #14 in the year 2013 (2013-04-15 UTC)

BREEZE-M R/B Visibility forecast

Observer location: undefined°, undefined

Span
Click to sort rows by Start time (UTC) header in descending order
Start Az.
Max El. time (UTC)
Max El. Az.
Max El.
End time (UTC)
End Az.
33 mins2024-12-26 10:03:56.029Z157.392° SSE2024-12-26 10:03:56.029Z157.392° SSE35.604°2024-12-26 10:36:56.029Z109.666° ESE
|